User: anonymous   Login
Location: Albany
(35.0000°S, 118.0000°E)
Time: 13:45:47
(UTC-04:00)
Language:

ADEOS Rocket - Orbit

View from above orbital plane
View from above orbital plane
View from above satellite
View from above satellite

Ground track
Ground track

The orbit data is extracted from the following two-line orbital elements,

1 24279U 96046C   15242.72699789 -.00000000  00000-0  43199-4 0  9991
2 24279 098.6957 259.4737 0300537 163.5114 307.5985 13.47031946935862
Epoch (UTC): 30 August 2015 17:26:52
Eccentricity: 0.0300537
inclination: 98.6957°
perigee height: 859 km
apogee height: 1307 km
right ascension of ascending node: 259.4737°
argument of perigee: 163.5114°
revolutions per day: 13.47031946
mean anomaly at epoch: 307.5985°
orbit number at epoch: 93586

The dashed part of the orbit path shows where the satellite is in the earth's shadow,  

DLR